[Date Prev][Date Next][Thread Prev][Thread Next][Date Index][Thread Index]

[jamsat-news:1527] AO-40: 最新軌道要素


皆様、

AO-40コマンド・チームのDB2OS Peter Guelzow
から、軌道要素について広報がありました。

(翻訳はJF6BCC/今石さん、TNX)
-----------------------
新規に取得した測距データは、引き続き、現在の推定軌道要素とよく
一致しています。

コマンド局の G3RUH James Miller から、軌道要素についていくつかの
更新情報が入りました。

MA(Mean anomaly)、MM(Mean motion)、EC(Eccentricity)が
修正されています。

AO-40 Amsat Ranging JRM
1 26609U 00072B   01176.01392904  .00000000  00000-0  10000-4 0  0047
2 26609   5.3129 179.7299 8002764 290.2832   6.9064  1.25609948  3004

Satellite:              AO-40 Amsat Ranging JRM
Catalog number:         26609
Epoch time:             01176.01392904
Inclination:            5.3129  deg
RA of node:           179.7299  deg
Eccentricity:        0.8002764   -
Arg of perigee:       290.2833  deg
Mean anomaly:           6.9065  deg
Mean motion:        1.25609948  rev/day
Decay rate:                0.0  rev/day^2
Epoch rev:                 300
Semi major axis:       36289.9     km

Apogee  height         58953.7  km
Perigee height           869.8  km

RAAN dot               -0.1747  deg/d
Arg Peri dot            0.3472  deg/d

コマンド局は更に数日間、距離測定を継続します。

AO-40チームを代表して、
73s
Peter DB2OS
-----------------------

JAMSAT SCOPE プロジェクトチーム
武安
ja6xkq@jamsat.or.jp